Weather in Podgornoye

Russia / Orenburg Oblast     51°11′15″N   57°36′30″E
temp.,
°C
wind,
m/s
gust,
m/s
humid.,
%
clouds,
%
prec.,
mm/h
press.,
hPa
HPBL,
m
27 january, wed
wed2723:00−2s2495100 0.0 1036136
02:00−3sse2395100 0.0 1036112
05:00−9sse229699 0.0 103621
08:00−10se2296100 0.0 103521
11:00−8se1294100 0.0 103624
14:00−5sse2492100 0.0 1036229
17:00−6se228999 0.0 103521
20:00−9ese229046 0.0 103521
28 january, thu
thu2823:00−10ese228823 0.0 103421
02:00−11e228862 0.0 103421
05:00−12e238852 0.0 103321
08:00−12e228626 0.0 103221
11:00−10e228523 0.0 103237
14:00−7e35840 0.0 1030203
17:00−8e33837 0.0 102929
20:00−10e237961 0.0 102921
29 january, fri
fri2923:00−10e337875 0.0 102824
02:00−11e3378100 0.0 102833
05:00−11e3479100 0.0 102652
08:00−12e3483100 0.0 102455
11:00−11e4883100 0.0 1023186
14:00−7e81281100 0.0 1021277
17:00−7e81283100 0.0 1019230
20:00−7ese71183100 0.0 1019256
30 january, sat
sat3023:00−5ese51094100 1.8 1018340
02:00−5ese3793100 0.1 1017178
05:00−7ese2289100 0.1 101721
08:00−7e2291100 0.0 101627
11:00−6e1295100 0.1 101784
14:00−4e119399 0.0 1017141
17:00−7ene119586 0.0 101721
20:00−8e229578 0.0 101824
31 january, sun
sun3123:00−10e129557 0.0 101821
02:00−10e119462 0.0 101821
05:00−11e119467 0.0 101921
08:00−10e129088 0.0 101821
11:00−8e229065 0.0 101937
14:00−5e378943 0.0 1018251
17:00−7e358945 0.0 101896
20:00−9e358819 0.0 101981